Flag for U.S.A. Weather past 2 weeks in Kennebunk, Maine, U.S.A.

Now
41 °F

Overcast.


Feels Like: 41 °F
Forecast: 36 / 54 °F
Wind: No wind

Location: Sanford Municipal

Current Time: Apr 26, 2015 at 2:35:22 AM

Latest Report: Apr 26, 2015 at 1:55 AM


Visibility: 10 mi

Pressure: 29.69 "Hg

Humidity: 57%

Dew point: 27 °F

Location of KennebunkLocation

Historic Weather in Kennebunk — Graph

°F

Kennebunk temperature yesterday

Maximum temperature yesterday: 52 °F (at 1:15 PM)
Minimum temperature yesterday: 34 °F (at 3:35 AM)
Average temperature yesterday: 41 °F

Past Weeks' High & Low Weather Summary

 TemperatureHumidityPressure
High70 °F (Apr 13, 11:15 AM)93% (Apr 19, 7:15 AM)30.49 "Hg (Apr 19, 7:15 AM)
Low21 °F (Apr 16, 5:55 AM)15% (Apr 15, 6:35 PM)29.46 "Hg (Apr 23, 1:55 AM)
Average46 °F55%29.95 "Hg
* Reported Apr 11 1:15 AM — Apr 26 1:35 AM, Kennebunk, Weather by CustomWeather, © 2015

Note: Actual official high and low records may vary slightly from our data, if they occured in-between our weather recording intervals... More about our weather records

Advertising

Kennebunk weather history for previous 24 hours

 ConditionsComfort  
Time TempWeatherWind HumidityBarometerVisibility
1:35 AM
Sun, Apr 26
41 °FOvercast.3 mph57%29.69 "Hg10 mi
1:15 AM41 °FMostly cloudy.5 mph57%29.70 "Hg10 mi
12:55 AM39 °FOvercast.3 mph61%29.70 "Hg10 mi
12:35 AM37 °FOvercast.3 mph70%29.71 "Hg10 mi
12:15 AM36 °FOvercast.No wind75%29.71 "Hg10 mi
11:15 PM
Sat, Apr 25
36 °FOvercast.No wind75%29.71 "Hg10 mi
10:55 PM34 °FOvercast.No wind75%29.71 "Hg10 mi
10:35 PM34 °FOvercast.3 mph70%29.72 "Hg10 mi
10:15 PM36 °FPassing clouds.3 mph60%29.72 "Hg10 mi
9:55 PM37 °FClear.5 mph60%29.73 "Hg10 mi
9:35 PM39 °FPassing clouds.5 mph56%29.73 "Hg10 mi
9:15 PM39 °FPassing clouds.3 mph56%29.73 "Hg10 mi
8:55 PM41 °FPassing clouds.5 mph49%29.73 "Hg10 mi
8:35 PM43 °FScattered clouds.6 mph49%29.73 "Hg10 mi
8:15 PM43 °FSunny.6 mph49%29.73 "Hg10 mi
7:55 PM45 °FSunny.5 mph42%29.72 "Hg10 mi
7:35 PM45 °FSunny.8 mph46%29.71 "Hg10 mi
7:15 PM46 °FSunny.9 mph40%29.71 "Hg10 mi
6:55 PM46 °FSunny.8 mph40%29.71 "Hg10 mi
6:35 PM46 °FScattered clouds.12 mph40%29.70 "Hg10 mi
6:15 PM46 °FScattered clouds.10 mph43%29.69 "Hg10 mi
5:15 PM50 °FSunny.15 mph37%29.68 "Hg10 mi
4:55 PM50 °FSunny.14 mph40%29.68 "Hg10 mi
4:35 PM48 °FPassing clouds.12 mph43%29.69 "Hg10 mi
4:15 PM48 °FPartly sunny.12 mph40%29.68 "Hg10 mi
3:55 PM50 °FBroken clouds.13 mph37%29.69 "Hg10 mi
3:35 PM52 °FBroken clouds.12 mph38%29.68 "Hg10 mi
3:15 PM52 °FPartly sunny.15 mph38%29.68 "Hg10 mi
2:55 PM52 °FOvercast.16 mph35%29.68 "Hg10 mi
2:35 PM52 °FPartly sunny.15 mph38%29.67 "Hg10 mi
2:15 PM50 °FPartly sunny.10 mph40%29.68 "Hg10 mi
1:55 PM52 °FPartly sunny.10 mph38%29.68 "Hg10 mi
1:35 PM50 °FMostly cloudy.16 mph40%29.68 "Hg10 mi
1:15 PM52 °FMostly cloudy.7 mph38%29.68 "Hg10 mi
12:55 PM48 °FPartly sunny.16 mph40%29.68 "Hg10 mi
12:35 PM50 °FPartly sunny.12 mph37%29.69 "Hg10 mi
12:15 PM48 °FScattered clouds.6 mph40%29.69 "Hg10 mi
11:55 AM48 °FPassing clouds.12 mph40%29.69 "Hg10 mi
11:35 AM46 °FPassing clouds.10 mph43%29.70 "Hg10 mi
11:15 AM45 °FSunny.16 mph42%29.71 "Hg10 mi
10:55 AM45 °FSunny.16 mph39%29.72 "Hg10 mi
10:35 AM43 °FPassing clouds.14 mph42%29.73 "Hg10 mi
10:15 AM41 °FScattered clouds.14 mph45%29.73 "Hg10 mi
9:55 AM41 °FPassing clouds.15 mph45%29.73 "Hg10 mi
9:35 AM39 °FPassing clouds.15 mph45%29.73 "Hg10 mi
9:15 AM39 °FSunny.13 mph45%29.72 "Hg10 mi
8:55 AM37 °FPassing clouds.15 mph48%29.72 "Hg10 mi
8:35 AM37 °FPartly sunny.12 mph48%29.72 "Hg10 mi
8:15 AM37 °FPartly sunny.14 mph48%29.72 "Hg10 mi
7:55 AM37 °FPartly sunny.10 mph52%29.73 "Hg10 mi
7:35 AM37 °FPassing clouds.16 mph52%29.73 "Hg10 mi
7:15 AM37 °FScattered clouds.10 mph52%29.73 "Hg10 mi
6:55 AM36 °FScattered clouds.12 mph56%29.73 "Hg10 mi
6:35 AM36 °FPassing clouds.12 mph56%29.72 "Hg10 mi
6:15 AM36 °FPassing clouds.10 mph52%29.71 "Hg10 mi
5:55 AM36 °FClear.9 mph48%29.71 "Hg10 mi
5:35 AM36 °FClear.7 mph48%29.72 "Hg10 mi
5:15 AM34 °FClear.8 mph51%29.71 "Hg10 mi
4:55 AM34 °FClear.9 mph56%29.71 "Hg10 mi
4:35 AM34 °FClear.7 mph56%29.71 "Hg10 mi
4:15 AM34 °FClear.7 mph56%29.71 "Hg10 mi
3:55 AM34 °FClear.9 mph60%29.71 "Hg10 mi
3:35 AM34 °FClear.7 mph60%29.71 "Hg10 mi
3:15 AM36 °FClear.9 mph52%29.71 "Hg10 mi
2:55 AM36 °FPassing clouds.8 mph52%29.71 "Hg10 mi
2:35 AM36 °FPassing clouds.9 mph52%29.71 "Hg10 mi
2:15 AM36 °FPassing clouds.12 mph48%29.71 "Hg10 mi
Weather by CustomWeather, © 2015

See weather overviewHow to use our weather pages